www.pogodaiklimat.ru

Погода и климат >> Архив погоды >> Россия >> Краснодарский край >> Кепша


ПОГОДА в Кепше

  • Прогноз погоды в Кепше
  • Монитор погоды в Кепше

АРХИВ ПОГОДЫ в Кепше

Время (UTC), дата Ветер
(напр.,м/с)
 
Видим.   Явления Облачность Т
(С)
Тd
(С)
f
(%)
Тe
(С)
Тes
(С)
Комфортность P
(гПа)
Po
(гПа)
Тmin
(С)
Tmax
(С)
R
(мм)
R24
(мм)
S
(см)
12 11.07 штиль 0 н/о н/о +23.7 +20.8 84 +30 +30 очень
душно
1003.5 983.2
15 11.07 штиль 0 н/о н/о +23.1 +20.4 85 +30 +30 очень
душно
1002.7 982.4 +24.4
18 11.07 штиль 0 н/о н/о +20.6 +19.9 96 +25 +25 комфорт 1002.8 982.3
21 11.07 Ю 1 н/о н/о +19.7 +18.7 94 +24 +24 комфорт 1002.7 982.2
00 12.07 штиль 0 н/о н/о +18.9 +18.9 100 +20 +20 1002.4 981.8
03 12.07 штиль 0 н/о н/о +18.2 +18.2 100 +19 +19 1003.2 982.5 +18.2 16
06 12.07 ЮВ 1 н/о н/о +19.5 +18.7 95 +23 +23 комфорт 1004.6 984.0 +18.1
21 12.07 штиль 0 н/о н/о +17.6 +17.6 100 +18 +18 1009.7 988.9
03 13.07 штиль 0 н/о н/о +16.9 +16.9 100 +17 +17 1009.1 988.2 +16.9
06 13.07 штиль 0 н/о н/о +19.9 +16.5 81 +22 +22 комфорт 1009.9 989.2 +16.8
09 13.07 ЮВ 3 н/о н/о +24.5 +13.7 51 +27 +27 жарко 1009.8 989.4
12 13.07 ЮВ 3 н/о н/о +23.7 +15.2 59 +27 +27 жарко 1010.3 989.8
15 13.07 Ю 1 н/о н/о +22.4 +15.0 63 +26 +26 жарко 1010.7 990.1 +25.8
18 13.07 штиль 0 н/о н/о +17.4 +15.2 87 +17 +17 1011.9 991.0
21 13.07 штиль 0 н/о н/о +14.8 +14.8 100 +14 +14 1012.3 991.2
00 14.07 штиль 0 н/о н/о +13.6 +13.6 100 +13 +13 1012.0 990.8
03 14.07 штиль 0 н/о н/о +14.0 +12.7 92 +14 +14 1011.9 990.7 +13.5
06 14.07 ЮВ 1 н/о н/о +19.3 +13.7 70 +22 +22 комфорт 1010.8 990.0 +13.5
09 14.07 ЮВ 4 н/о н/о +25.4 +12.3 44 +27 +27 жарко 1008.4 988.1
12 14.07 Ю 2 н/о н/о +26.4 +12.8 43 +28 +28 жарко 1007.5 987.3
15 14.07 ЮВ 2 н/о н/о +23.6 +12.6 50 +26 +26 жарко 1007.1 986.7 +26.9
18 14.07 З 1 н/о н/о +18.1 +15.2 83 +19 +19 1007.4 986.6
21 14.07 штиль 0 н/о н/о +15.6 +14.6 94 +15 +15 1006.9 985.9
00 15.07 штиль 0 н/о н/о +13.4 +13.4 100 +13 +13 1005.8 984.7
06 15.07 штиль 0 н/о н/о +16.5 +13.4 82 +16 +16 1004.6 983.7 +12.5
09 15.07 штиль 0 н/о н/о +17.1 +16.5 96 +17 +17 1003.1 982.3
12 15.07 штиль 0 н/о н/о +17.6 +17.6 100 +18 +18 1004.8 984.1
15 15.07 штиль 0 н/о н/о +18.7 +18.7 100 +20 +20 1005.5 984.8 +17.7 9
18 15.07 штиль 0 н/о н/о +17.4 +17.4 100 +17 +17 1007.1 986.3
21 15.07 штиль 0 н/о н/о +17.2 +17.2 100 +17 +17 1007.1 986.3
00 16.07 штиль 0 н/о н/о +16.5 +16.5 100 +16 +16 1007.1 986.2
03 16.07 штиль 0 н/о н/о +16.3 +16.3 100 +16 +16 1007.5 986.6 +16.3 50
06 16.07 штиль 0 н/о н/о +16.9 +16.9 100 +17 +17 1008.5 987.6 +16.3
09 16.07 штиль 0 н/о н/о +17.9 +17.9 100 +18 +18 1009.1 988.3
12 16.07 ЮЗ 1 н/о н/о +17.6 +17.6 100 +19 +19 1010.3 989.4
15 16.07 штиль 0 н/о н/о +20.3 +19.6 96 +24 +24 комфорт 1010.0 989.4 +20.9 73
18 16.07 штиль 0 н/о н/о +16.9 +16.9 100 +17 +17 1011.6 990.7
21 16.07 штиль 0 н/о н/о +16.3 +16.3 100 +16 +16 1011.9 990.9
00 17.07 штиль 0 н/о н/о +14.7 +14.7 100 +14 +14 1011.2 990.1
03 17.07 штиль 0 н/о н/о +13.9 +13.9 100 +13 +13 1010.9 989.7 +13.9
06 17.07 В 1 н/о н/о +19.3 +14.6 74 +22 +22 комфорт 1008.4 987.7 +13.7
09 17.07 ЮВ 3 н/о н/о +26.4 +17.5 58 +31 +31 душно 1005.7 985.5
15 17.07 ЮВ 2 н/о н/о +24.9 +18.1 66 +29 +29 душно 1004.6 984.4 +27.8

 

Местоположение метеостанции Кепша (Краснодарский край, Россия): широта 43.62 долгота 40.05 высота над уровнем моря 421 м.

В архиве по умолчанию представлена погода в Кепше за последнюю неделю. Архивные данные за месяц целиком и за предыдущие месяцы, начиная с января 2011 года, Вы можете получить, выбрав интересующий диапазон дат из раскрывающегося списка и нажав кнопку "Ввод!".


*Определитесь, кто Вы:
робот инопланетянин человек

Внимание! Время в таблицах - всемирное. Для получения местного времени необходимо прибавить поправку, которая равна 3 ч.

Смотрите также архив погоды в соседних городах и на ближайших метеорологических станциях:

Погода в Красной Поляне (Краснодарский край, Россия) (14 км)
Погода в Горная Карусель 1500 (Краснодарский край, Россия) (20 км)
Погода в Горная Карусель 1000 (Краснодарский край, Россия) (20 км)
Погода на Кордоне Лаура (Краснодарский край, Россия) (22 км)
Погода в Сочи (Краснодарский край, Россия) (23 км)
Погода в Сочи аэропорт (Адлере) (Краснодарский край, Россия) (24 км)
Погода в Имеретинке (Краснодарский край, Россия) (26 км)
Погода в Солох Ауле (Краснодарский край, Россия) (39 км)
Погода в Гузерипле (Адыгея, Россия) (43 км)
Погода в Кичмае (Краснодарский край, Россия) (49 км)

Пояснения к столбцам:

Ветер - указаны скорость ветра в м/с - средняя за 10 мин, порывы в срок и между сроками (в фигурных скобках) и направление, откуда дует ветер: С - северный, СВ - северо-восточный, В - восточный, ЮВ - юго-восточный, Ю - южный, ЮЗ - юго-западный, З - западный, СЗ - северо-западный.
Видимость - горизонтальная дальность видимости в метрах или километрах. При видимости от 1 до 10 км при отсутствии осадков обычно наблюдается дымка, при ухудшении видимости до 1 км и менее - туман. В сухую погоду видимость может ухудшаться дымом, пылью или мглою.
Явления - указаны атмосферные явления, наблюдавшиеся в срок или в последний час перед сроком; фигурными скобками обозначены явления, наблюдавшиеся между сроками (за 1-3 часа до срока); квадратными скобками обозначены град или гололедные отложения с указанием их диаметра в мм.
Облачность - указаны через наклонную черту общая и нижняя облачность в баллах и высота нижней границы облаков в метрах; квадратными скобками обозначены формы облаков: Ci - перистые, Cs - перисто-слоистые, Cc - перисто-кучевые, Ac - высококучевые, As - высокослоистые, Sc - слоисто-кучевые, Ns - слоисто-дождевые, Cu - кучевые, Cb - кучево-дождевые. Подробнее классификацию облаков см. в Атласе облаков (PDF).
T - Температура воздуха - температура, измеренная на высоте 2 м над землей.
Td - Температура точки росы - температура, при понижении до которой содержащийся в воздухе водяной пар достигнет насыщения.
f - Относительная влажность воздуха - влажноcть воздуха, измеренная на высоте 2 м над землей.
Te - Эффективная температура - температура, которую ощущает одетый по сезону человек в тени. Характеристика душности погоды. При расчете учитывается влияние влажности воздуха и скорости ветра на теплоощущения человека.
Tes - Эффективная температура на солнце - температура, которую ощущает человек, с поправкой на солнечный нагрев. Характеристика знойности погоды. Зависит от высоты солнца над горизонтом, облачности и скорости ветра. Ночью, в пасмурную погоду, а также при ветре 12 м/с и более поправка равна нулю.
P - Атмосферное давление - приведенное к уровню моря атмосферное давление.
Po - Атмосферное давление - измеренное на уровне метеостанции атмосферное давление.
Tmin - Минимальная температура - минимум температуры воздуха на высоте 2 м над землей.
Tmax - Максимальная температура - максимум температуры воздуха на высоте 2 м над землей.
R - Количество осадков - Количество выпавших осадков за период времени, мм. При наведении курсора мыши на число - период времени, за который выпало указанное количество осадков.
R24 - Количество осадков - Количество выпавших осадков за 24 часа, мм.
S - Снежный покров - Высота снежного покрова, см. При наведении курсора мыши на число - состояние снежного покрова и степень покрытия местности в баллах.